ORBITER SN3

导读

ORBITER SN3(SN轨道器3号)是美国发射者公司研制的一款太空拖船,于北京时间2023年6月12日由SpaceX猎鹰9号火箭搭载拼车发射。它主要用于在轨服务,可携带小型卫星并将其精准部署至预定轨道,能承载最高150公斤有效载荷,还可调整轨道速度约500米/秒,遗憾的是,此次任务中卫星在与火箭分离后出现故障,未能完成全部预定任务。

基本信息
目录编号:
56960
目录名称:
ORBITER SN3
国际标识:
2023-084AE
轨道中心:
EARTH
卫星名称:
ORBITER SN3
卫星全名:
--
卫星状态:
在轨 (已飞行1101 天)
发射日期:
2023-06-12 UTC
国别 :
美国 (US)
星等 :
--
轨道信息
数据来源 国际轨道数据 AOE轨道数据
星历时间 2026-06-17T12:38:18+0800
3小时前
查看轨道信息
2026-06-15T06:00:00+0800
2天前
查看轨道信息
半长轴 6840.15km 6840.225km
偏心率 0.0007087 0.0007207
轨道倾角 97.628° 97.626°
近地点辐角 341.006° 349.676°
升交点赤经 309.013° 306.660°
平近点角 19.092° 41.167°
近地点 457.165km 457.158km
远地点 466.861km 467.018km
周期 93.834分钟 93.835分钟
每日圈数 15.346323 15.346073
详细信息
使用方式:
暂无
2D轨道图
3D轨道图
轨道高度分析图
轨道倾角分析图
轨道综合分析图
查看轨道综合分析图